Previsão horária em Junoszyn

Hoje, 21 Junho, Segunda-feira

Tempo Temperatura Precipitação Vento Pressão Humidade
00:00 +22°C° 0 mm 4 m/s 746 mmHg 72%
01:00 +22°C° 0 mm 4 m/s 746 mmHg 74%
02:00 +21°C° 0 mm 4 m/s 746 mmHg 77%
03:00 +21°C° 0 mm 4 m/s 745 mmHg 80%
04:00 +20°C° 0 mm 3 m/s 745 mmHg 84%
05:00 +21°C° 0 mm 4 m/s 745 mmHg 79%
06:00 +23°C° 0 mm 4 m/s 745 mmHg 75%
07:00 +25°C° 0 mm 4 m/s 746 mmHg 70%
08:00 +27°C° 0 mm 4 m/s 746 mmHg 64%
09:00 +29°C° 0 mm 4 m/s 746 mmHg 59%
10:00 +30°C° 0 mm 4 m/s 746 mmHg 53%
11:00 +31°C° 0 mm 3 m/s 745 mmHg 50%
12:00 +33°C° 0 mm 3 m/s 745 mmHg 47%
13:00 +34°C° 0 mm 3 m/s 745 mmHg 44%
14:00 +34°C° 0 mm 3 m/s 745 mmHg 46%
15:00 +33°C° 0 mm 4 m/s 745 mmHg 49%
16:00 +33°C° 0 mm 4 m/s 744 mmHg 51%
17:00 +28°C° 3.4 mm 4 m/s 745 mmHg 65%
18:00 +25°C° 3.4 mm 4 m/s 746 mmHg 79%
19:00 +20°C° 3.4 mm 4 m/s 747 mmHg 92%
20:00 +20°C° 0.4 mm 4 m/s 747 mmHg 93%
21:00 +19°C° 0.4 mm 3 m/s 747 mmHg 93%
22:00 +19°C° 0.4 mm 2 m/s 747 mmHg 93%
23:00 +19°C° 0 mm 2 m/s 747 mmHg 94%

Amanhã, 22 Junho, Terça-feira

Tempo Temperatura Precipitação Vento Pressão Humidade
00:00 +19°C° 0 mm 2 m/s 747 mmHg 94%
01:00 +19°C° 0 mm 2 m/s 747 mmHg 94%
02:00 +18°C° 0 mm 2 m/s 747 mmHg 94%
03:00 +18°C° 0 mm 2 m/s 747 mmHg 94%
04:00 +18°C° 0 mm 2 m/s 747 mmHg 95%
05:00 +19°C° 0 mm 2 m/s 748 mmHg 92%
06:00 +20°C° 0 mm 3 m/s 748 mmHg 89%
07:00 +21°C° 0 mm 3 m/s 748 mmHg 86%
08:00 +22°C° 0 mm 3 m/s 749 mmHg 82%
09:00 +22°C° 0 mm 3 m/s 749 mmHg 78%
10:00 +23°C° 0 mm 4 m/s 749 mmHg 75%
11:00 +25°C° 0 mm 3 m/s 749 mmHg 73%
12:00 +25°C° 0 mm 3 m/s 749 mmHg 70%
13:00 +26°C° 0 mm 3 m/s 749 mmHg 68%
14:00 +26°C° 0 mm 3 m/s 749 mmHg 68%
15:00 +26°C° 0 mm 3 m/s 749 mmHg 67%
16:00 +26°C° 0 mm 3 m/s 749 mmHg 67%
17:00 +26°C° 0 mm 3 m/s 749 mmHg 70%
18:00 +25°C° 0 mm 3 m/s 749 mmHg 73%
19:00 +25°C° 0 mm 3 m/s 749 mmHg 76%
20:00 +22°C° 0.2 mm 3 m/s 750 mmHg 76%
21:00 +21°C° 0.2 mm 4 m/s 750 mmHg 77%
22:00 +20°C° 0.2 mm 4 m/s 750 mmHg 78%
23:00 +19°C° 0.1 mm 4 m/s 751 mmHg 79%

Depois de amanhã, 23 Junho, Quarta-feira

Tempo Temperatura Precipitação Vento Pressão Humidade
00:00 +18°C° 0.1 mm 4 m/s 751 mmHg 81%
01:00 +18°C° 0.1 mm 4 m/s 751 mmHg 82%
02:00 +17°C° 0 mm 3 m/s 751 mmHg 83%
03:00 +17°C° 0 mm 3 m/s 751 mmHg 83%
04:00 +17°C° 0 mm 3 m/s 752 mmHg 84%
05:00 +17°C° 0.7 mm 3 m/s 752 mmHg 82%
06:00 +17°C° 0.7 mm 3 m/s 753 mmHg 81%
07:00 +18°C° 0.7 mm 4 m/s 753 mmHg 79%
08:00 +18°C° 0.4 mm 3 m/s 753 mmHg 76%
09:00 +19°C° 0.4 mm 3 m/s 753 mmHg 73%
10:00 +20°C° 0.4 mm 3 m/s 753 mmHg 70%
11:00 +21°C° 0.1 mm 3 m/s 753 mmHg 68%
12:00 +22°C° 0.1 mm 3 m/s 753 mmHg 65%
13:00 +24°C° 0.1 mm 3 m/s 753 mmHg 63%
14:00 +24°C° 0.3 mm 3 m/s 753 mmHg 65%
15:00 +24°C° 0.3 mm 2 m/s 753 mmHg 66%
16:00 +24°C° 0.3 mm 2 m/s 754 mmHg 68%
17:00 +23°C° 0.4 mm 2 m/s 754 mmHg 74%
18:00 +21°C° 0.4 mm 2 m/s 754 mmHg 81%
19:00 +20°C° 0.4 mm 3 m/s 754 mmHg 88%
20:00 +19°C° 0.2 mm 2 m/s 754 mmHg 89%
21:00 +18°C° 0.2 mm 2 m/s 754 mmHg 90%
22:00 +18°C° 0.2 mm 2 m/s 754 mmHg 92%
23:00 +18°C° 0 mm 2 m/s 754 mmHg 92%

24 Junho, Quinta-feira

Tempo Temperatura Precipitação Vento Pressão Humidade
00:00 +18°C° 0 mm 2 m/s 754 mmHg 92%
01:00 +17°C° 0 mm 2 m/s 754 mmHg 91%
02:00 +17°C° 0 mm 2 m/s 754 mmHg 92%
03:00 +18°C° 0 mm 1 m/s 754 mmHg 92%
04:00 +18°C° 0 mm 1 m/s 753 mmHg 92%
05:00 +19°C° 0 mm 1 m/s 753 mmHg 90%
06:00 +19°C° 0 mm 1 m/s 754 mmHg 88%
07:00 +20°C° 0 mm 1 m/s 754 mmHg 85%
08:00 +21°C° 0 mm 1 m/s 754 mmHg 81%
09:00 +22°C° 0 mm 1 m/s 754 mmHg 77%
10:00 +23°C° 0 mm 2 m/s 754 mmHg 72%
11:00 +25°C° 0 mm 1 m/s 753 mmHg 69%
12:00 +26°C° 0 mm 1 m/s 753 mmHg 66%
13:00 +25°C° 0 mm 0 m/s 753 mmHg 63%
14:00 +25°C° 0.1 mm 0 m/s 753 mmHg 64%
15:00 +27°C° 0.1 mm 1 m/s 753 mmHg 65%
16:00 +26°C° 0.1 mm 1 m/s 752 mmHg 67%
17:00 +26°C° 0 mm 1 m/s 752 mmHg 71%
18:00 +25°C° 0 mm 2 m/s 752 mmHg 75%
19:00 +24°C° 0 mm 2 m/s 752 mmHg 79%
20:00 +23°C° 0 mm 2 m/s 751 mmHg 84%
21:00 +21°C° 0 mm 3 m/s 751 mmHg 88%
22:00 +19°C° 0 mm 3 m/s 751 mmHg 92%
23:00 +19°C° 1.8 mm 2 m/s 751 mmHg 93%

25 Junho, Sexta-feira

Tempo Temperatura Precipitação Vento Pressão Humidade
00:00 +19°C° 1.8 mm 2 m/s 751 mmHg 94%
01:00 +19°C° 1.8 mm 1 m/s 751 mmHg 96%
02:00 +19°C° 0.7 mm 1 m/s 750 mmHg 96%
03:00 +18°C° 0.7 mm 2 m/s 750 mmHg 97%
04:00 +18°C° 0.7 mm 2 m/s 750 mmHg 98%
05:00 +18°C° 0.3 mm 3 m/s 750 mmHg 96%
06:00 +19°C° 0.3 mm 3 m/s 750 mmHg 93%
07:00 +20°C° 0.3 mm 3 m/s 750 mmHg 91%
08:00 +20°C° 0.1 mm 3 m/s 750 mmHg 89%
09:00 +21°C° 0.1 mm 3 m/s 750 mmHg 86%
10:00 +21°C° 0.1 mm 4 m/s 750 mmHg 84%
11:00 +21°C° 0.2 mm 4 m/s 750 mmHg 82%
12:00 +22°C° 0.2 mm 4 m/s 750 mmHg 80%
13:00 +22°C° 0.2 mm 4 m/s 750 mmHg 78%
14:00 +22°C° 0.6 mm 4 m/s 750 mmHg 80%
15:00 +21°C° 0.6 mm 3 m/s 750 mmHg 83%
16:00 +21°C° 0.6 mm 3 m/s 750 mmHg 85%
17:00 +21°C° 0.4 mm 3 m/s 750 mmHg 86%
18:00 +20°C° 0.4 mm 2 m/s 750 mmHg 87%
19:00 +20°C° 0.4 mm 2 m/s 750 mmHg 88%
20:00 +19°C° 0.2 mm 2 m/s 750 mmHg 89%
21:00 +18°C° 0.2 mm 2 m/s 751 mmHg 90%
22:00 +18°C° 0.2 mm 2 m/s 751 mmHg 92%
23:00 +17°C° 0 mm 2 m/s 751 mmHg 93%

26 Junho, Sábado

Tempo Temperatura Precipitação Vento Pressão Humidade
00:00 +17°C° 0 mm 2 m/s 751 mmHg 94%
01:00 +16°C° 0 mm 3 m/s 751 mmHg 95%
02:00 +16°C° 0 mm 3 m/s 752 mmHg 95%
03:00 +14°C° 0 mm 3 m/s 752 mmHg 95%
04:00 +14°C° 0 mm 3 m/s 752 mmHg 95%
05:00 +16°C° 0 mm 3 m/s 752 mmHg 92%
06:00 +17°C° 0 mm 4 m/s 752 mmHg 89%
07:00 +18°C° 0 mm 4 m/s 752 mmHg 85%
08:00 +19°C° 0.2 mm 4 m/s 752 mmHg 81%
09:00 +20°C° 0.2 mm 5 m/s 752 mmHg 77%
10:00 +21°C° 0.2 mm 5 m/s 752 mmHg 73%
11:00 +21°C° 0.4 mm 5 m/s 752 mmHg 72%
12:00 +21°C° 0.4 mm 5 m/s 752 mmHg 72%
13:00 +21°C° 0.4 mm 5 m/s 752 mmHg 71%
14:00 +21°C° 0.2 mm 5 m/s 752 mmHg 71%
15:00 +21°C° 0.2 mm 5 m/s 752 mmHg 72%
16:00 +20°C° 0.2 mm 5 m/s 752 mmHg 72%
17:00 +20°C° 0 mm 5 m/s 752 mmHg 74%
18:00 +19°C° 0 mm 5 m/s 752 mmHg 76%
19:00 +19°C° 0 mm 4 m/s 752 mmHg 77%
20:00 +18°C° 0 mm 4 m/s 752 mmHg 81%
21:00 +17°C° 0 mm 3 m/s 752 mmHg 85%
22:00 +16°C° 0 mm 3 m/s 752 mmHg 89%
23:00 +16°C° 0.1 mm 3 m/s 753 mmHg 90%
Mostrar mais

Necessitamos do seu Consentimento

A Meteoprog e os seus Fornecedores de Serviços podem armazenar e aceder a dados pessoais como cookies, identificadores do dispositivo ou outras tecnologias semelhantes existentes no seu dispositivo e processar estes dados para personalizar conteúdos e anúncios, assim como funcionalidades nas redes sociais e análise de tráfego.

  • Armazenar e/ou aceder a informações no seu dispositivo

    Os cookies, identificadores do dispositivo ou outras informações podem ser armazenados ou acedidos no seu dispositivo, para os fins acima indicados.

  • Anúncios e conteúdos personalizados, medição de anúncios e conteúdos, dados sobre o público-alvo e desenvolvimento de produtos

    Os anúncios e os conteúdos podem ser personalizados com base num perfil. Podem ser adicionados dados adicionais para uma maior personalização dos anúncios e dos conteúdos. A eficácia dos anúncios e dos conteúdos pode ser medida. Podem ser obtidas informações sobre o público que visualizou os anúncios e os conteúdos. Estes dados podem ser usados para desenvolver ou melhorar sistemas, softwares ou a experiência do utilizador.

Ao clicar em "Eu concordo”, permitirá o uso de cookies, identificadores do dispositivo e web beacons mencionados ou outras tecnologias semelhantes. As configurações do navegador do seu dispositivo podem ser alteradas.

Para certos fins, podem ser invocados interesses legítimos ao invés de consentimento. Pode ler mais informação sobre este assunto na nossa Política de Privacidade e Cookies.